{"data":{"norad_id":53436,"epoch":"2026-09-19T17:19:30.194400Z","epoch_age_seconds":142628,"freshness":"FRESH","line1":"1 53436U 22097BA  26262.72187725  .00000363  00000+0  21322-4 0  9993","line2":"2 53436  53.1592 297.1551 0001307  81.3939 278.7212 15.35399980228296","mean_motion":15.3539998,"eccentricity":0.0001307,"inclination_deg":53.1592,"raan_deg":297.1551,"arg_perigee_deg":81.3939,"mean_anomaly_deg":278.7212,"bstar":2.1322e-5,"rev_number":22829,"period_min":93.786636626112,"perigee_km":458.83899255073,"apogee_km":460.62641169086,"semimajor_km":6837.8697021208,"source":"CELESTRAK","updated_at":"2026-09-20T09:00:40.232568Z"}}